Regional Weather Roundup
Issued by NWS

Home | Current Version | Previous Version | Graphics & Text | Print | Product List | Glossary Off
Versions: 1 2 3 4 5 6 7 8 9 10 11 12 13 14 15 16 17 18 19 20 21 22 23 24 25 26 27 28 29 30 31 32 33 34 35 36 37 38 39 40 41 42 43 44 45 46 47 48 49 50

000
ASUS43 KLSX 042310
RWRMO

WEATHER SUMMARY FOR MISSOURI
NATIONAL WEATHER SERVICE SPRINGFIELD MO
600 PM CDT TUE AUG 04 2015

NOTE: "FAIR" INDICATES FEW OR NO CLOUDS BELOW 12,000 FEET WITH NO
       SIGNIFICANT WEATHER AND/OR OBSTRUCTIONS TO VISIBILITY.
       CURRENT SKY AND/OR WEATHER CONDITIONS ARE NOT AVAILABLE FOR
       CHILLICOTHE AND FARMINGTON.

MOZ001>031-035>038-043-044-053-054-050000-
...NORTHERN AND WESTERN MISSOURI...

CITY           SKY/WX    TMP DP  RH WIND       PRES   REMARKS
KANSAS CTY INT LGT RAIN  72  68  87 W10G20    30.01S
KANSAS C DTWN  TSTM      72  68  87 SW6       30.00R
LEE`S SUMMIT   TSTM      72  68  87 W7        30.02R FOG
ST JOSEPH      CLOUDY    80  72  76 S9        29.96R
CHILLICOTHE      N/A     81  69  67 SE6       29.97R
KIRKSVILLE     MOSUNNY   77  67  71 S6        29.98S

$$
MOZ066>068-077>081-088>096-101>105-050000-
...SOUTHWEST MISSOURI...

CITY           SKY/WX    TMP DP  RH WIND       PRES   REMARKS
SPRINGFIELD    CLOUDY    84  68  58 W3        29.98S
JOPLIN         CLOUDY    81  70  69 CALM      29.97S

$$
MOZ032>034-039>042-045>050-055>058-069>072-050000-
...CENTRAL MISSOURI...

CITY           SKY/WX    TMP DP  RH WIND       PRES   REMARKS
COLUMBIA       CLOUDY    80  72  76 SE6       29.96R
JEFFERSON CITY CLOUDY    82  72  71 E3        29.94S
ROLLA          CLOUDY    81  72  74 E8        29.97R
SEDALIA        CLOUDY    79  72  79 N6        29.98R
WHITEMAN AFB   PTSUNNY   77  72  85 N7        29.96R
WARRENSBURG    CLOUDY    77  70  78 N3        29.96R
OSAGE BEACH    CLOUDY    84  72  65 CALM      29.97R

$$
MOZ051-052-059>065-050000-
...EAST CENTRAL MISSOURI...

CITY           SKY/WX    TMP DP  RH WIND       PRES   REMARKS
ST LOUIS INTL  PTSUNNY   85  70  60 E6        29.95F
SPIRIT OF STL  CLOUDY    83  73  72 E5        29.93F
ST CHARLES     PTSUNNY   83  72  69 E6        29.93F

$$
MOZ072>076-082>087-097>100-106>115-050000-
...SOUTH CENTRAL AND SOUTHEAST MISSOURI...

CITY           SKY/WX    TMP DP  RH WIND       PRES   REMARKS
CAPE GIRARDEAU CLOUDY    87  76  69 SW3       29.92F HX  97
FARMINGTON     CLOUDY    82  70  65 NW3       30.01S
POPLAR BLUFF   CLOUDY    88  74  63 SW5       29.92F HX  96
WEST PLAINS    CLOUDY    85  71  63 SW3       29.99F HX  90

$$



USA.gov is the U.S. government's official web portal to all federal, state and local government web resources and services.